Theta_e
322 323 324 323 320 317 320 322 316 318 319 316 316 317 317 319 320 320 322 325 325 324 329 331 334 334 334 335 335 335 334 335 334 333 333 333 332 331 332 331 331 331 331 331 332 332 330 331 333
322 322 323 317 321 321 320 318 318 316 316 314 316 316 318 320 316 316 321 325 324 322 326 327 330 332 333 333 333 332 332 333 333 332 330 331 330 329 326 325 325 326 329 330 329 328 327 327 328
320 321 321 320 318 321 318 316 314 316 314 315 317 315 315 318 314 316 318 324 324 322 321 325 325 327 331 333 331 332 332 331 330 329 327 324 323 322 320 319 318 320 324 324 322 320 318 316 319
320 316 311 318 321 318 317 315 314 315 316 315 315 316 314 314 315 317 319 322 323 322 319 322 325 329 328 331 331 331 331 329 326 322 320 318 316 315 315 315 314 316 316 314 313 312 312 309 306
317 313 318 318 316 314 314 314 312 315 314 315 314 316 314 313 316 316 319 321 321 320 318 319 326 326 325 325 325 325 327 322 319 316 313 313 313 313 313 312 311 312 312 312 311 310 309 309 307
314 311 317 318 317 317 315 313 313 314 314 314 315 314 314 311 315 315 319 319 319 318 316 318 322 322 321 320 317 316 315 309 307 304 304 307 308 306 308 308 308 310 310 310 310 309 310 310 309
316 317 318 317 319 318 315 310 313 313 313 313 312 314 311 308 314 315 317 317 317 316 314 316 318 318 317 314 312 310 308 307 307 304 303 300 298 297 301 302 306 308 308 308 307 303 300 301 301
312 312 316 315 316 318 316 313 314 313 313 311 310 313 314 308 313 315 316 315 315 314 312 313 314 314 313 312 311 309 306 305 304 301 298 297 296 296 297 297 299 303 302 301 298 296 296 296 296
312 311 313 315 318 317 314 315 314 312 314 313 312 311 310 311 310 312 312 312 312 312 311 310 310 310 309 309 309 305 302 300 300 298 297 297 297 296 297 298 297 296 296 297 296 294 294 294 295
315 311 311 312 316 315 315 313 314 314 312 313 313 309 309 309 307 306 306 307 310 310 310 308 307 306 305 305 305 302 299 297 297 297 297 297 297 297 297 296 295 294 294 294 294 294 294 294 295
315 315 314 316 316 314 314 314 312 313 312 310 311 309 305 305 304 304 304 305 308 309 308 307 305 303 301 301 302 299 297 297 297 298 298 297 297 296 296 296 295 295 294 294 295 295 295 294 294
317 314 314 315 316 315 314 313 313 310 314 311 308 308 305 304 304 304 303 303 303 306 306 305 304 303 302 300 299 297 297 298 298 298 297 297 296 296 296 296 296 295 294 295 295 294 294 293 293
316 315 315 314 314 312 313 313 312 310 309 308 309 306 306 305 305 305 305 304 303 303 304 304 303 302 302 301 298 297 298 298 298 297 297 297 296 296 296 296 296 295 295 295 294 294 293 293 293
314 315 314 313 313 313 314 312 313 313 310 308 308 306 305 306 305 305 304 304 303 303 303 303 302 302 301 301 299 298 298 298 297 296 296 296 296 295 295 296 295 295 294 294 294 294 294 293 293
314 315 312 314 312 312 311 312 312 313 311 310 309 307 305 305 306 305 306 305 305 305 304 303 302 302 301 300 299 298 298 298 298 297 295 296 295 295 295 295 295 294 293 293 293 293 293 292 292
314 313 314 312 311 312 312 314 313 310 310 310 308 308 306 306 305 307 307 306 305 305 304 304 302 302 301 300 299 298 298 298 298 297 296 295 295 294 294 294 294 293 292 292 292 292 291 291 291
310 309 310 312 311 312 311 313 313 310 308 309 309 306 308 307 304 307 307 307 307 306 305 304 303 302 301 300 299 298 298 298 298 297 296 295 293 293 293 293 293 293 293 292 292 291 291 290 290
309 311 311 312 312 312 312 312 313 311 309 307 307 307 305 307 309 310 308 308 308 307 306 305 303 301 301 300 299 298 298 298 297 296 296 295 293 293 293 293 292 292 292 291 291 290 289 289 289
310 309 310 310 310 313 312 313 313 313 310 308 308 310 309 305 309 310 310 309 307 306 304 303 301 300 300 299 298 298 297 297 297 296 295 295 293 292 292 292 291 291 291 290 290 289 289 289 289
311 312 312 311 311 310 311 312 312 311 312 312 311 311 310 310 310 309 306 307 305 306 304 302 301 300 300 299 298 296 296 296 297 296 295 294 293 292 292 291 291 291 291 290 289 289 288 288 287
310 311 312 312 310 308 308 311 310 309 311 312 311 311 311 310 310 310 302 304 305 304 302 301 301 301 300 298 297 296 296 295 295 295 294 294 293 292 292 291 291 290 290 289 289 288 288 287 286
312 310 311 311 311 312 309 313 310 309 309 309 310 310 310 310 310 309 302 301 303 303 302 300 299 299 299 298 297 296 295 295 294 293 293 293 293 292 291 291 290 289 289 288 288 288 287 287 286
313 310 310 310 309 310 312 312 311 309 310 310 310 309 309 310 308 307 303 303 303 302 301 299 299 298 298 298 297 296 295 295 294 293 293 293 292 292 291 290 289 289 288 288 287 287 287 287 286
309 311 310 307 308 314 311 311 311 310 311 310 310 310 309 309 310 303 302 303 302 302 300 298 298 297 297 296 296 296 295 294 293 293 293 292 292 291 290 290 289 288 288 287 287 286 286 286 285
310 310 311 310 311 314 308 310 313 310 309 309 309 308 308 308 308 301 300 300 299 298 298 297 297 296 296 296 296 296 296 295 294 293 292 292 291 291 290 290 289 288 287 287 286 286 285 285 285
309 310 312 310 313 313 307 311 311 309 309 308 307 308 307 304 303 302 300 300 298 298 297 297 296 296 295 296 296 295 295 294 293 293 292 292 292 291 291 290 289 288 287 286 286 285 284 284 283
308 310 310 310 295 306 310 309 310 307 308 307 307 306 302 302 302 302 300 298 298 297 297 297 296 296 295 295 294 294 294 294 293 292 292 292 292 292 291 290 289 287 287 286 285 285 284 283 283
308 307 311 310 311 309 311 310 312 311 310 308 306 305 303 302 301 301 299 297 298 298 297 297 297 296 296 295 295 294 294 294 293 292 292 291 291 291 291 290 288 287 286 285 284 284 283 282 281
307 308 308 309 313 316 317 314 313 311 307 306 307 305 303 302 301 301 301 299 299 299 299 297 297 296 296 295 295 294 294 293 293 292 292 292 291 291 290 289 288 287 285 284 283 282 282 281 281
306 309 310 313 314 312 314 315 313 313 311 310 310 305 304 302 301 300 300 299 298 298 297 298 297 296 297 296 294 294 293 293 292 292 292 291 291 290 290 289 288 286 285 284 282 281 281 281 280
Wind_Speed
1 2 4 4 4 4 4 5 2 2 1 2 2 3 6 3 5 4 10 23 17 21 21 19 19 17 12 12 13 12 10 11 10 9 12 11 9 7 7 7 7 6 5 3 3 4 4 6 6
1 3 3 2 4 2 5 5 6 4 5 5 2 4 1 3 3 5 12 22 21 21 22 21 21 20 18 14 14 13 12 12 12 10 9 9 9 9 8 7 6 6 6 5 4 7 7 7 6
1 2 3 4 3 4 4 5 6 2 3 4 3 2 6 4 3 15 8 26 22 21 21 22 21 20 16 13 18 14 13 12 12 11 11 11 11 11 10 9 8 9 9 8 7 7 6 5 5
1 4 4 3 5 7 5 5 5 5 2 1 3 2 2 2 5 15 23 27 25 22 19 21 20 18 17 15 15 14 13 14 13 13 12 11 10 9 10 10 11 11 9 8 8 8 7 6 4
3 3 2 1 5 5 6 3 9 5 4 4 5 3 3 3 7 17 30 28 27 23 21 21 19 18 17 17 16 15 16 15 14 13 12 12 12 12 12 11 12 12 11 10 9 9 9 10 9
3 3 2 3 5 5 4 6 6 5 3 3 3 3 4 3 17 25 28 27 25 24 22 22 21 20 19 18 17 17 16 14 12 11 11 11 11 12 12 11 11 11 10 10 10 11 11 10 10
5 3 4 4 5 5 5 8 5 7 6 6 3 6 1 6 21 27 27 26 25 23 24 24 23 21 20 19 18 18 16 15 14 14 14 13 12 11 12 11 11 11 10 10 10 9 9 10 10
4 3 3 4 3 5 2 5 2 6 8 1 8 6 7 8 25 26 24 25 25 24 24 25 24 24 22 21 20 19 18 17 16 16 15 14 12 11 11 9 9 8 8 8 7 7 7 7 7
3 3 3 5 3 4 1 3 1 1 3 3 6 4 3 15 28 26 25 24 26 26 27 27 27 25 23 22 22 20 19 18 19 18 16 15 14 12 10 9 8 8 8 8 8 8 7 7 7
4 3 8 6 2 4 3 5 4 2 3 4 5 0 5 29 33 26 26 28 33 33 32 30 29 28 26 25 24 21 20 20 19 18 18 16 15 13 11 9 9 8 8 7 7 7 7 6 6
5 6 5 6 4 4 3 3 5 5 7 9 10 6 9 15 23 24 26 32 42 39 35 35 32 30 29 28 26 24 23 22 21 19 18 17 15 13 11 9 7 6 6 5 5 5 6 7 8
4 10 7 6 3 3 4 1 5 9 17 6 12 6 10 14 18 26 27 33 36 40 40 37 36 34 31 28 28 27 26 24 23 22 21 19 18 15 13 10 8 6 4 3 4 5 6 7 8
7 6 6 7 7 6 3 10 8 10 13 10 7 8 16 16 23 28 32 30 33 39 42 41 39 37 35 32 30 29 27 26 24 23 22 22 19 17 15 13 10 7 4 2 2 3 5 5 6
3 4 7 6 7 5 5 7 5 20 4 13 11 13 13 18 26 25 27 33 38 42 44 43 42 40 37 36 34 32 29 27 26 25 25 24 21 19 16 14 12 9 6 3 1 2 4 7 8
4 8 8 11 7 9 6 10 12 26 3 10 12 11 13 20 20 30 41 38 45 46 44 46 45 42 40 39 36 34 31 30 29 28 26 25 23 20 17 15 14 10 7 4 0 3 5 6 8
4 2 5 0 6 4 9 16 14 10 8 15 13 12 10 15 23 37 36 39 40 41 44 46 47 46 44 42 39 36 33 32 31 30 28 26 24 21 19 16 14 10 7 4 1 2 5 8 11
2 6 8 14 11 6 8 12 13 6 9 12 12 11 13 15 13 29 35 41 42 45 45 46 48 49 48 44 40 38 35 34 33 31 30 27 25 22 20 17 14 11 8 6 3 3 6 10 13
8 6 6 8 3 4 8 15 15 9 8 12 11 11 11 15 23 28 35 41 43 43 45 46 48 49 48 44 40 37 35 36 34 34 32 29 26 24 22 20 17 14 11 7 4 3 5 8 13
2 6 7 8 6 5 10 17 19 21 11 12 15 18 17 16 24 25 29 36 37 39 41 45 46 49 49 46 44 40 43 40 38 36 34 31 29 27 25 22 19 16 13 9 6 3 3 5 12
12 17 21 19 19 7 16 23 17 13 19 19 17 20 21 18 20 18 23 30 35 44 46 45 48 49 52 49 46 33 38 43 41 37 36 34 32 30 27 25 22 19 16 12 9 6 3 2 9
13 14 19 17 6 6 11 22 15 11 21 23 22 21 20 20 21 21 10 25 32 34 42 46 50 53 53 48 42 34 30 31 38 40 40 38 35 32 29 26 23 21 18 15 11 9 6 5 5
16 13 15 14 3 11 3 26 6 7 14 13 17 18 18 20 21 18 10 13 27 38 40 42 45 48 49 50 45 42 35 28 35 35 43 40 36 34 31 29 26 23 20 18 14 11 8 5 6
13 5 6 3 5 5 7 8 4 11 11 13 16 14 17 20 15 19 14 19 32 31 40 42 44 46 46 51 48 45 34 33 27 34 37 39 38 36 34 31 29 27 24 20 18 16 13 9 8
1 3 4 4 2 12 12 11 1 6 10 6 10 16 16 17 21 11 12 17 21 30 33 36 40 43 45 47 46 46 40 34 32 34 37 41 41 39 37 34 32 28 25 22 19 16 14 11 9
4 5 4 4 1 12 9 9 23 6 6 11 13 13 15 16 16 5 9 10 19 29 33 35 38 37 45 48 50 50 47 45 44 43 41 40 43 45 43 38 35 32 28 24 20 18 15 13 12
11 11 7 8 12 19 4 10 11 13 11 10 12 12 13 11 8 10 11 10 16 24 28 31 36 35 42 48 49 47 47 43 43 42 42 43 45 47 46 42 39 34 30 26 23 20 17 15 13
4 7 16 2 1 1 7 14 13 7 8 8 11 12 12 12 9 9 6 8 17 25 32 35 33 34 41 44 40 42 46 45 45 42 44 44 43 42 42 42 40 34 30 28 25 23 20 18 15
7 4 2 2 3 7 9 6 14 16 14 10 10 12 12 9 9 8 6 8 17 20 25 31 34 39 38 40 43 44 46 47 44 42 45 44 42 40 40 41 40 35 32 29 27 24 21 18 15
1 4 4 3 5 14 18 15 28 16 9 7 11 9 9 10 10 8 7 8 16 21 27 32 35 34 35 41 42 39 44 46 45 46 45 45 42 40 39 40 40 38 35 32 29 25 21 19 16
4 12 12 12 13 11 17 19 27 32 25 19 24 15 7 6 9 8 7 6 13 18 26 35 36 41 48 45 41 45 42 44 42 46 47 45 43 40 40 40 40 39 36 33 30 27 24 20 18
Wind_Direction
117 336 348 33 41 58 272 267 217 169 120 261 124 155 177 123 164 208 146 178 174 170 174 173 168 160 158 155 151 150 144 134 130 144 153 153 150 119 102 88 87 85 128 123 70 47 46 39 30
39 31 52 78 89 27 269 257 201 207 174 140 103 103 68 203 139 149 147 173 177 173 177 179 176 177 164 164 168 164 162 155 157 156 156 129 127 120 111 105 100 88 78 73 64 38 31 28 23
14 359 83 104 123 197 230 237 206 232 182 168 106 18 158 204 179 176 181 174 180 178 179 180 180 180 169 167 175 161 157 154 160 144 132 127 123 119 112 105 101 90 86 81 68 47 29 12 4
60 26 30 95 229 259 237 240 192 153 330 14 130 205 280 202 191 179 169 176 179 176 176 177 171 169 170 162 161 156 153 149 139 135 132 127 121 114 107 100 93 94 88 76 61 48 36 25 1
61 62 68 309 258 256 248 215 166 173 191 190 156 241 247 237 185 170 171 178 182 178 179 176 170 171 168 162 162 158 156 152 150 146 136 129 122 116 110 103 97 91 84 78 67 60 52 46 44
43 97 81 230 246 248 250 182 170 187 207 156 158 151 240 243 171 169 176 182 189 183 181 179 176 173 169 169 168 167 173 175 173 162 146 138 127 120 114 105 101 100 93 87 77 70 65 62 54
117 97 220 232 254 290 223 150 190 195 177 229 162 175 273 198 177 173 182 188 189 190 186 184 181 177 173 173 171 172 171 168 164 156 150 144 139 132 123 115 108 102 93 86 81 68 59 52 43
109 98 280 254 247 269 257 186 105 165 227 74 161 220 252 207 176 175 182 187 191 193 195 192 188 185 182 181 178 178 174 171 167 162 157 152 147 148 144 137 123 111 94 85 74 60 59 51 43
97 61 251 251 219 265 358 239 307 318 136 226 208 179 304 167 170 171 176 187 194 199 201 198 195 193 192 190 188 187 184 180 173 169 164 162 163 157 150 148 130 114 97 85 73 66 59 54 48
119 152 226 219 234 240 236 197 227 202 214 245 271 75 130 162 172 176 182 189 197 201 202 203 201 199 197 196 197 193 187 181 177 175 175 174 173 167 159 144 122 109 99 86 68 51 41 39 31
185 215 222 263 248 204 228 244 201 202 248 216 212 201 163 169 183 192 200 198 201 206 205 205 204 202 201 200 197 194 190 184 182 184 182 180 177 173 162 151 136 119 97 80 64 41 31 23 14
212 239 220 264 250 273 231 241 244 197 242 210 228 177 169 183 194 201 206 207 207 209 211 208 207 205 204 203 201 196 193 193 191 189 188 187 184 179 173 165 161 149 126 78 45 32 25 17 10
226 248 228 235 269 262 296 245 239 251 247 243 248 176 189 198 207 211 214 216 211 213 214 213 209 209 207 206 204 201 201 199 194 194 192 192 191 188 182 178 177 175 157 139 72 36 24 18 2
258 263 268 267 240 250 210 269 145 264 223 237 228 219 207 206 210 211 216 217 214 217 217 214 212 212 210 209 207 207 204 202 200 200 200 198 198 194 189 188 185 185 182 183 150 25 15 1 351
301 306 307 251 231 231 157 284 226 248 177 252 248 234 217 220 212 215 219 215 216 219 218 215 213 212 212 212 211 209 207 205 206 206 205 203 202 199 198 194 193 191 188 191 92 8 358 347 348
311 333 312 302 141 235 148 263 252 247 204 252 249 255 239 236 218 226 224 223 219 216 216 217 214 214 213 213 211 210 210 210 211 210 209 207 205 203 200 199 198 195 196 205 247 340 345 348 346
282 244 225 293 197 162 183 246 270 239 200 248 260 250 251 252 241 235 227 227 224 221 217 217 214 214 212 213 213 212 212 213 214 214 212 210 207 206 204 204 202 202 210 221 248 317 341 342 340
222 224 253 244 242 186 222 248 272 264 201 238 257 267 254 254 252 241 229 227 225 223 221 218 212 211 210 211 211 211 213 216 217 216 215 213 211 209 207 205 205 207 212 216 229 284 330 340 340
206 228 243 256 247 225 230 236 248 265 263 253 254 254 252 245 253 251 239 232 220 217 211 210 202 205 204 203 202 205 208 212 214 217 217 215 214 211 209 208 207 208 212 212 221 247 321 347 354
243 257 262 270 264 214 260 259 249 249 261 257 248 258 252 251 258 252 224 218 208 213 210 202 201 200 202 201 202 200 203 212 215 215 218 217 216 214 213 211 210 211 212 211 218 224 224 41 16
229 233 253 256 301 249 289 271 251 244 250 264 263 250 258 248 249 255 209 210 208 203 200 198 199 202 201 199 197 199 205 212 214 216 218 216 216 216 215 213 213 215 213 213 215 216 206 153 92
257 227 254 261 283 274 126 294 196 231 244 243 252 257 245 248 252 257 211 202 202 208 204 200 196 197 198 201 197 193 196 200 214 211 215 215 216 216 217 216 214 215 214 213 213 213 216 180 149
253 167 233 217 215 338 182 266 160 203 250 247 253 248 257 259 246 243 221 210 211 199 198 196 194 197 195 201 202 199 202 208 209 209 217 217 217 218 218 217 215 215 215 214 212 212 213 209 183
96 59 37 65 122 265 203 210 98 180 213 241 252 254 249 254 261 241 217 209 198 197 192 190 191 194 196 200 202 205 205 206 205 207 211 217 217 216 218 218 218 218 217 216 215 213 214 214 208
132 92 298 320 9 255 191 216 251 274 216 215 238 256 253 252 254 244 191 192 181 185 186 186 189 193 196 202 206 210 211 212 213 211 208 210 213 215 216 215 215 215 216 215 214 213 216 217 218
207 189 182 206 253 270 109 249 265 220 237 228 236 257 269 281 240 216 209 192 184 187 189 188 192 195 198 205 208 210 212 212 215 218 214 217 218 218 217 215 216 215 214 212 211 211 213 216 224
175 177 233 317 108 5 248 275 287 229 269 310 278 280 264 264 259 243 220 191 184 186 191 194 196 200 203 207 206 210 213 214 217 218 222 223 224 222 221 218 216 214 214 213 211 210 213 216 220
186 165 115 184 206 248 268 250 260 284 285 290 295 301 298 312 288 270 230 203 203 198 197 200 204 206 208 209 210 212 216 218 219 220 223 223 224 223 222 218 215 211 211 212 212 214 215 218 220
185 247 229 184 197 246 261 264 278 278 274 261 298 288 293 305 286 248 240 229 217 211 208 209 210 211 212 216 215 212 216 219 218 223 226 226 225 221 221 218 211 210 208 209 211 213 214 216 221
271 265 242 237 246 235 254 256 263 269 270 272 288 289 296 282 263 280 229 201 214 215 213 215 213 214 219 218 215 218 218 220 216 221 226 226 223 221 219 213 210 208 208 209 212 211 212 213 215